VKG1398 EFOU-LGRP

Flight info

Callsign VKG1398
Flight time N/A
Altitude 34000
Route IXONO T255 VAXUN DCT RIKUM DCT DETNI DCT BOLBO/N0448F350 DCT RENDO M748 HDO DCT GOLOP DCT ODNEM DCT XOMBA DCT BABIT DCT NISVA DCT RODIP DCT BELGI UN131 DUGLA UN129 PIROX
Aircraft A321/M-SDE3FGHIRWY/LB1

Departure

Time 2026-04-29 14:33
Airport Oulu Airport (EFOU)

Arrival

Time N/A
Airport Rhodes International Airport "Diagoras" (LGRP)
Time Latitude Longitude Altitude Speed Heading
2026-04-29 14:00 64.92786 25.37323 51 ft 0 kts 66°
2026-04-29 14:28 64.92770 25.37231 47 ft 4 kts 78°
2026-04-29 14:28 64.92769 25.37170 50 ft 4 kts 105°
2026-04-29 14:28 64.92777 25.37121 48 ft 1 kts 121°
2026-04-29 14:28 64.92779 25.37113 50 ft 0 kts 121°
2026-04-29 14:30 64.92763 25.37176 48 ft 14 kts 121°
2026-04-29 14:30 64.92683 25.37491 50 ft 25 kts 121°
2026-04-29 14:31 64.92599 25.37818 49 ft 18 kts 122°
2026-04-29 14:31 64.92527 25.37925 50 ft 12 kts 191°
2026-04-29 14:31 64.92485 25.37818 48 ft 9 kts 244°
2026-04-29 14:31 64.92456 25.37658 44 ft 9 kts 263°
2026-04-29 14:32 64.92468 25.37576 46 ft 7 kts 296°
2026-04-29 14:32 64.92487 25.37495 46 ft 4 kts 303°
2026-04-29 14:32 64.92501 25.37445 45 ft 9 kts 303°
2026-04-29 14:32 64.92606 25.37035 48 ft 39 kts 301°
2026-04-29 14:33 64.92854 25.36073 53 ft 104 kts 301°
2026-04-29 14:33 64.93345 25.34163 54 ft 164 kts 303°
2026-04-29 14:33 64.93963 25.31787 682 ft 168 kts 304°
2026-04-29 14:33 64.94535 25.29402 1610 ft 168 kts 294°
2026-04-29 14:34 64.94630 25.26626 2237 ft 178 kts 258°
2026-04-29 14:34 64.93895 25.24101 2425 ft 203 kts 219°
2026-04-29 14:34 64.92670 25.22139 2585 ft 222 kts 215°
2026-04-29 14:34 64.91294 25.20106 2709 ft 246 kts 213°
2026-04-29 14:35 64.89769 25.17935 3122 ft 262 kts 212°
2026-04-29 14:35 64.88192 25.15715 3859 ft 266 kts 212°
2026-04-29 14:35 64.86590 25.13465 4621 ft 269 kts 212°
2026-04-29 14:35 64.84973 25.11197 5371 ft 272 kts 213°
2026-04-29 14:36 64.83329 25.08891 6054 ft 278 kts 213°
2026-04-29 14:36 64.81655 25.06538 6724 ft 283 kts 213°
2026-04-29 14:36 64.79950 25.04142 7335 ft 288 kts 213°
2026-04-29 14:36 64.78220 25.01711 7988 ft 291 kts 213°
2026-04-29 14:37 64.76474 24.99260 8652 ft 294 kts 213°
2026-04-29 14:37 64.74706 24.96785 9322 ft 297 kts 213°
2026-04-29 14:37 64.72940 24.94321 9968 ft 301 kts 213°
2026-04-29 14:37 64.71129 24.91801 10542 ft 306 kts 213°
2026-04-29 14:38 64.69235 24.89157 10683 ft 327 kts 213°
2026-04-29 14:38 64.67226 24.86343 10819 ft 346 kts 213°
2026-04-29 14:38 64.65100 24.83368 11012 ft 362 kts 213°
2026-04-29 14:38 64.62915 24.80322 11486 ft 369 kts 213°
2026-04-29 14:39 64.60695 24.77242 12026 ft 374 kts 213°
2026-04-29 14:39 64.58475 24.74178 12566 ft 378 kts 213°
2026-04-29 14:39 64.56197 24.71048 13120 ft 383 kts 213°
2026-04-29 14:39 64.53893 24.67879 13666 ft 387 kts 213°